GFSNW_prec_cloud_336.txt.gz
Cloud_Cover
0 0 0 0 0 7 1 0 0 0 0 0 0 0 0 0 0 0 0 0 0 0 0 0 0 0 0 0 0 0 0 0 0 0 0 0 0 5 74 96 99 53 5 84
1 0 0 0 0 0 0 0 0 0 0 0 0 0 0 0 0 0 0 0 0 0 0 0 0 0 0 0 0 0 0 0 0 0 0 0 0 1 42 99 45 68 55 100
98 0 0 0 0 0 7 0 0 0 0 0 0 0 0 0 0 0 0 0 0 0 0 0 0 0 0 0 0 0 0 0 0 0 0 0 0 3 6 95 84 94 45 56
29 0 0 0 0 0 8 0 0 0 0 0 0 0 0 0 0 0 0 0 0 0 0 0 0 0 0 0 0 0 0 0 0 0 0 0 0 0 8 71 89 57 100 100
0 0 0 0 0 0 0 0 0 0 0 0 0 0 0 0 0 0 0 0 0 0 0 0 0 0 0 0 0 0 0 0 0 0 0 0 0 0 1 81 48 5 89 61
0 0 0 0 0 0 0 0 0 0 0 0 0 0 0 0 0 0 0 0 0 0 0 0 0 0 0 0 0 0 0 0 0 0 0 0 0 0 0 2 2 4 100 91
5 5 4 2 0 0 0 0 0 0 0 0 0 0 0 0 0 5 0 0 0 0 0 0 0 0 0 0 0 0 0 0 0 0 0 0 0 0 0 0 0 5 100 55
5 5 6 5 5 5 5 0 0 0 0 0 0 0 0 0 0 0 0 5 0 0 0 0 0 0 0 0 0 0 0 0 0 0 0 0 0 0 0 0 4 2 70 57
4 3 4 0 2 4 0 2 0 0 0 0 0 0 0 0 0 0 0 0 0 0 0 0 0 0 0 0 0 0 0 0 0 0 0 0 0 0 0 0 2 3 80 1
9 0 5 5 22 64 5 5 2 0 0 2 0 0 2 1 0 0 0 0 0 0 0 0 0 0 0 0 0 0 0 0 0 0 0 0 0 0 0 0 9 4 63 4
4 1 5 79 13 5 4 9 3 3 5 5 0 0 0 4 5 1 0 0 0 0 0 0 0 0 0 0 0 0 0 0 0 0 0 0 0 0 0 0 0 5 3 2
6 42 10 5 3 0 0 94 39 18 20 25 0 0 0 0 0 5 5 2 3 0 0 0 0 0 0 0 0 0 0 0 0 0 0 0 0 0 0 0 0 0 0 4
36 5 2 5 5 59 100 100 96 100 56 2 1 10 0 0 0 0 4 5 4 0 0 2 0 0 0 0 0 0 0 0 0 0 0 0 0 0 0 0 0 0 0 3
5 4 4 5 49 100 73 100 86 98 86 50 24 2 4 2 0 0 2 3 5 5 4 0 0 0 0 0 0 0 0 0 0 0 0 0 0 0 0 0 0 0 0 0
17 5 5 5 43 92 33 88 95 95 89 43 54 100 99 98 75 5 5 4 5 5 5 3 0 0 0 0 0 0 0 0 0 0 0 0 0 0 0 0 0 0 0 0
100 62 9 5 6 5 99 100 78 97 100 100 100 100 100 80 15 12 86 19 7 5 5 5 5 5 3 0 0 0 0 0 0 0 0 0 0 0 0 0 0 0 0 0
42 35 30 13 17 54 96 93 92 48 86 100 100 99 100 100 100 100 100 88 58 36 45 5 3 5 6 0 0 0 0 0 0 0 0 0 0 0 0 0 0 0 0 0
45 74 100 95 85 66 41 78 98 100 100 100 100 100 100 100 100 100 100 100 100 94 46 12 5 5 8 6 0 33 5 0 0 0 0 0 0 0 0 0 0 0 0 0
43 84 7 72 53 94 100 86 94 100 99 100 100 100 100 100 100 100 100 100 100 100 100 95 84 64 23 18 1 0 0 0 0 0 0 0 0 0 0 0 0 0 0 0
97 85 100 99 100 100 70 100 100 100 100 100 100 90 99 100 100 100 100 100 100 100 100 100 100 92 5 1 0 1 3 0 0 0 0 0 0 0 0 0 0 0 0 0
88 100 96 88 99 100 100 100 95 100 99 99 91 100 100 100 100 100 95 100 100 100 97 100 100 7 4 3 4 5 23 19 8 21 1 0 0 0 0 0 0 0 0 0
100 93 93 100 100 100 87 100 90 100 100 92 100 100 100 100 100 100 100 100 100 97 98 99 77 29 49 26 48 68 100 100 74 56 55 11 0 0 0 0 0 0 0 0
100 100 100 100 100 100 100 97 100 100 93 100 100 100 100 100 100 100 100 100 100 100 100 100 88 17 64 56 56 100 100 100 100 96 83 41 21 0 0 0 0 0 0 0
100 100 100 100 99 100 99 100 100 85 99 100 100 100 100 100 100 100 100 100 100 100 100 93 67 99 41 18 66 99 100 92 19 100 83 16 13 0 0 0 0 0 0 0
100 100 96 99 100 100 99 93 93 92 95 100 100 100 100 100 100 100 100 100 100 100 100 100 100 100 100 100 98 100 68 70 94 72 82 1 22 6 0 0 0 0 0 0
100 99 94 100 100 95 99 99 100 100 100 100 100 99 99 100 100 100 100 100 100 100 100 100 100 100 100 100 100 98 1 1 3 19 61 95 34 14 0 0 0 0 0 0
100 100 100 100 100 100 100 100 100 100 100 100 100 100 100 100 100 100 100 100 100 100 100 100 100 100 100 100 100 100 76 53 90 47 99 100 100 55 0 0 0 0 0 0

GFSNW_prec_cloud_339.txt.gz
Cloud_Cover
0 0 0 0 0 4 0 0 0 0 0 0 0 0 0 0 0 0 0 0 0 0 2 0 0 0 0 0 0 0 0 0 0 0 4 3 0 86 2 99 84 41 100 100
0 0 0 0 0 0 0 0 0 0 0 0 0 0 0 0 0 0 0 0 0 0 0 0 0 1 0 0 0 0 0 0 0 0 3 5 1 0 6 78 58 100 100 100
0 0 0 0 0 0 9 0 0 0 0 0 0 0 0 0 0 0 0 0 0 0 0 0 0 0 0 0 0 0 0 0 0 0 17 60 9 0 0 5 94 100 100 99
0 0 0 0 0 0 1 0 0 0 0 0 0 0 0 0 0 0 0 0 0 0 0 0 0 0 0 0 0 0 0 0 0 0 5 84 52 4 0 5 98 100 100 81
0 0 0 0 0 0 0 0 0 0 0 0 0 0 0 0 0 0 0 0 0 0 0 0 0 0 0 0 0 0 0 0 0 0 0 0 0 4 5 5 82 99 43 96
0 0 0 0 1 1 1 0 0 0 0 0 0 0 0 0 0 0 0 0 0 0 0 0 0 0 0 0 0 0 0 0 0 0 0 0 0 0 0 4 68 100 99 88
5 5 5 5 5 5 5 5 5 3 0 0 0 0 0 0 0 0 0 0 0 0 0 0 0 0 0 0 0 0 0 0 0 0 0 0 0 0 0 0 0 40 100 100
5 5 5 5 5 5 5 5 5 2 0 0 0 0 0 0 0 0 0 0 0 0 0 0 0 0 0 0 0 0 0 0 0 0 0 1 5 0 0 0 0 0 25 88
0 0 0 0 0 0 0 0 0 0 3 5 4 0 0 0 0 0 0 0 0 0 0 0 0 0 0 0 0 0 0 0 0 0 1 1 4 4 5 0 0 0 0 5
0 0 0 0 0 0 2 1 0 0 1 5 4 2 5 0 0 0 0 0 0 0 0 0 0 0 0 0 0 0 0 0 0 0 0 0 1 7 2 0 0 0 0 0
6 1 0 0 1 0 1 58 5 22 30 8 5 51 37 5 0 0 2 0 0 0 0 0 0 0 0 0 0 0 0 0 0 0 0 0 0 1 0 3 0 0 0 0
66 0 5 6 0 2 5 96 11 5 20 44 9 6 7 11 17 5 4 0 0 0 0 0 0 0 0 0 0 0 0 0 0 0 0 0 0 3 0 0 0 0 0 0
90 1 2 3 0 34 16 88 49 0 1 4 5 29 12 0 0 2 4 4 3 0 0 0 0 0 0 0 0 0 0 0 0 0 0 0 1 0 0 0 0 0 0 0
77 2 2 1 28 100 26 100 100 60 6 4 94 2 7 0 4 2 2 1 1 0 4 1 0 0 0 0 0 0 0 0 0 0 0 0 1 0 0 0 0 0 0 0
50 60 5 5 8 36 26 82 100 96 73 67 60 14 31 43 18 8 5 5 5 5 1 0 0 0 0 2 0 0 0 0 0 4 0 0 2 5 0 0 0 0 0 0
98 85 21 5 5 5 97 100 100 56 64 56 56 51 80 48 56 24 15 5 5 5 5 5 3 4 0 1 0 0 0 0 0 0 0 0 0 4 24 0 0 0 0 0
100 44 6 7 5 30 100 94 100 52 52 74 97 80 27 9 95 100 83 100 25 5 5 5 5 5 5 5 0 0 0 0 0 0 0 0 0 0 1 0 0 0 0 0
75 94 80 86 98 26 51 74 42 34 83 48 98 87 14 43 100 100 100 89 67 23 7 4 2 2 5 2 1 2 22 6 0 0 0 0 0 0 0 0 0 0 0 0
100 34 8 57 61 97 54 7 56 88 100 96 100 98 100 70 100 100 100 100 100 64 91 84 44 51 3 2 21 60 9 3 4 0 0 0 0 0 0 0 0 0 0 0
100 80 100 100 99 62 22 100 100 100 100 100 100 83 100 100 100 100 100 100 100 100 100 87 96 60 5 1 5 5 3 0 2 1 0 0 0 0 0 0 0 0 0 0
95 100 100 91 79 87 100 100 100 100 100 93 78 87 100 100 100 100 100 100 100 100 100 100 100 75 10 0 0 3 38 14 19 43 31 14 1 0 0 0 0 0 0 0
100 100 95 98 98 100 100 100 83 56 99 99 100 100 100 100 100 100 100 100 100 100 99 93 86 82 100 27 4 5 89 84 5 26 31 40 2 1 0 0 0 0 0 0
100 99 100 100 100 100 94 99 97 100 100 99 72 100 100 100 100 100 100 100 100 91 99 77 5 6 8 44 97 100 59 76 99 82 26 44 56 43 2 0 0 0 0 0
100 100 100 99 100 84 100 100 100 100 97 70 88 95 100 100 100 100 100 100 96 100 100 83 17 77 30 43 29 50 63 95 100 70 79 74 100 76 52 3 0 0 0 0
100 94 97 100 100 100 99 100 98 100 100 100 100 100 100 100 100 100 100 100 100 100 100 100 100 100 100 52 46 78 76 40 66 47 50 22 38 13 6 2 2 0 0 0
100 96 100 97 98 100 100 100 97 98 100 100 100 89 97 100 100 100 100 100 100 100 100 100 100 100 99 93 49 87 89 100 100 53 29 4 32 6 0 0 3 0 0 0
100 100 100 100 100 100 100 100 100 100 100 100 100 100 100 100 100 100 100 100 100 100 100 100 100 99 100 100 100 100 100 100 94 14 5 31 5 0 0 0 0 0 0 0

GFSNW_prec_cloud_342.txt.gz
Cloud_Cover
0 0 0 0 0 0 0 0 0 0 0 0 0 0 0 0 0 0 0 0 0 0 7 5 5 0 0 0 0 0 0 0 1 41 100 78 0 34 41 29 2 85 71 100
0 0 0 0 0 0 0 0 0 0 0 0 0 0 0 0 0 0 0 0 0 0 0 25 96 5 3 0 0 0 0 0 0 5 5 0 1 2 0 26 99 5 68 53
0 0 0 0 0 0 3 0 0 0 0 0 0 0 0 0 0 0 0 0 0 0 0 0 16 46 0 0 0 0 0 0 0 0 0 34 10 4 0 0 5 85 17 99
0 0 0 0 0 0 0 0 0 0 0 0 0 0 0 0 0 0 0 0 0 0 0 0 0 4 1 0 0 0 0 0 0 0 0 17 97 63 41 0 0 0 72 100
2 0 0 0 0 0 0 0 0 0 0 0 0 0 0 0 0 0 0 0 0 0 0 0 5 1 48 1 0 0 0 0 0 0 0 0 5 95 100 16 0 0 100 100
6 0 0 0 0 0 0 0 0 0 0 0 0 0 0 0 0 0 0 0 0 0 0 0 0 0 0 3 0 0 0 0 0 0 0 0 0 0 19 3 100 0 86 100
17 0 0 0 0 0 4 4 4 5 4 0 0 0 0 0 0 0 0 0 0 0 0 0 0 0 0 0 0 0 0 0 0 0 0 0 0 0 0 0 10 26 99 55
16 0 0 0 0 1 5 5 5 5 0 0 0 0 4 4 1 0 0 0 0 0 0 0 0 0 0 0 0 0 0 4 5 5 0 2 4 3 4 4 0 0 5 2
3 2 0 0 0 0 0 0 0 0 0 0 1 5 4 1 0 0 0 0 0 0 0 0 0 0 0 0 0 0 0 0 0 5 5 8 5 100 76 50 6 4 0 0
13 4 0 0 0 0 0 1 0 0 0 0 3 0 2 0 1 0 0 4 0 0 0 0 0 0 0 0 0 0 0 0 0 0 2 4 27 87 99 98 62 12 13 0
42 4 0 0 0 0 0 6 7 0 0 9 22 1 0 1 0 0 1 1 5 5 0 0 0 0 0 0 0 0 1 0 0 0 0 0 2 88 100 45 4 0 0 0
90 8 0 1 0 0 0 41 48 5 0 4 0 0 3 4 4 5 2 5 5 5 3 0 0 0 0 0 0 0 0 21 5 3 0 0 0 0 24 5 0 0 0 0
87 32 1 4 0 0 0 37 16 0 1 1 2 26 14 4 24 76 96 29 4 5 6 5 1 0 0 0 0 0 0 14 98 76 6 78 8 0 0 0 0 0 0 0
95 5 3 0 0 0 1 91 39 56 14 4 96 7 2 0 1 0 0 0 7 5 84 42 5 0 0 0 1 0 0 5 5 1 3 24 63 0 0 0 0 0 0 0
100 35 5 4 5 4 6 98 100 97 97 76 37 12 3 5 5 0 0 0 3 16 5 25 30 5 0 0 0 0 0 4 5 0 5 2 0 4 0 0 0 0 0 0
100 96 45 5 4 5 81 99 100 100 100 98 5 32 6 1 15 0 5 0 5 5 5 5 11 52 2 0 5 0 0 0 0 0 4 0 0 6 12 1 0 0 0 0
100 99 32 5 5 10 100 100 100 93 68 75 47 56 44 0 3 2 25 50 18 8 5 5 5 23 15 7 4 3 0 0 0 0 0 0 0 0 3 5 0 0 0 0
91 56 70 61 40 20 38 43 24 31 77 43 85 60 99 4 7 16 41 64 96 51 48 54 70 58 40 20 16 3 0 0 0 0 0 0 0 0 0 0 0 0 0 0
99 96 9 23 26 99 98 28 5 55 40 87 91 97 99 56 99 71 20 58 86 100 78 77 32 29 4 1 2 5 5 5 0 0 0 0 0 0 0 0 0 0 0 0
100 75 99 100 99 89 61 80 91 84 99 63 99 80 94 66 80 56 100 90 83 100 100 98 39 2 0 0 2 5 3 2 36 4 4 1 0 0 0 0 0 0 0 0
100 100 100 100 81 89 87 100 100 100 97 98 79 81 99 33 71 100 100 100 100 100 100 100 100 77 2 1 0 0 1 24 6 28 52 70 69 61 0 0 0 0 0 0
100 95 92 89 100 92 95 99 98 72 100 98 99 72 92 92 100 100 100 93 93 84 93 91 99 100 100 90 21 0 1 94 41 26 18 28 27 6 0 0 0 0 0 0
100 100 100 100 92 86 92 98 99 96 100 85 93 88 61 97 100 100 100 100 100 62 98 67 7 20 100 100 98 77 99 22 12 57 9 0 8 8 13 3 0 0 0 0
100 96 97 63 78 98 100 100 100 99 100 100 100 100 100 100 100 100 100 100 100 100 100 100 90 98 28 27 99 85 8 11 5 0 0 0 30 21 2 4 0 0 0 0
100 93 88 91 100 100 100 100 98 78 100 99 100 100 100 100 100 100 100 100 100 100 100 100 100 100 100 100 78 68 32 14 5 24 23 2 54 60 1 31 19 0 0 0
100 88 89 84 79 100 100 100 95 66 100 100 100 100 100 100 100 100 100 100 100 100 100 100 100 100 100 82 63 17 7 55 81 100 96 79 70 63 0 0 3 0 0 0
100 100 87 100 100 100 99 100 100 100 100 100 100 100 100 100 100 100 100 100 100 100 100 100 100 100 100 100 100 98 100 100 100 100 100 100 53 14 0 0 0 75 54 5

GFSNW_prec_cloud_345.txt.gz
Cloud_Cover
0 0 0 0 0 0 0 0 0 0 0 0 0 0 0 0 0 0 0 0 0 0 0 5 48 0 0 0 0 0 0 0 0 0 47 95 100 70 89 62 54 91 87 100
0 0 0 0 0 6 8 0 0 0 0 0 0 0 0 0 0 0 0 0 0 0 0 0 5 87 60 1 2 0 0 0 0 0 1 44 72 84 5 0 100 25 74 100
0 0 0 0 0 0 7 0 0 0 0 0 0 0 0 0 0 0 0 0 0 0 0 0 2 46 70 31 1 0 0 0 0 0 0 7 97 97 0 0 2 1 5 27
0 0 0 0 0 0 4 0 0 0 0 0 0 0 0 0 0 0 0 0 0 0 0 0 0 5 6 100 6 0 0 0 0 0 0 0 0 4 83 57 0 52 0 0
0 0 0 0 0 0 0 0 0 0 0 0 0 0 0 0 0 0 0 0 0 0 0 0 0 2 0 0 3 0 0 0 0 0 0 0 0 0 16 90 79 66 3 0
0 0 0 0 0 0 0 0 0 0 0 0 0 0 0 0 0 0 0 0 0 0 0 0 0 0 0 0 0 0 0 0 0 0 0 0 0 0 1 47 86 95 29 3
23 0 0 0 0 0 0 0 0 0 0 0 0 0 0 0 0 2 0 0 0 0 0 0 0 0 0 0 5 0 0 0 0 0 0 0 0 0 0 4 5 100 80 25
100 1 0 0 0 0 0 0 0 0 0 0 0 1 0 5 0 1 0 0 0 0 0 0 0 0 0 0 0 3 0 0 0 0 0 0 0 0 0 0 0 4 22 33
34 2 0 0 0 0 0 0 0 0 0 0 0 0 0 0 0 3 0 0 4 0 0 0 0 0 0 0 0 0 0 0 0 0 0 0 0 0 62 50 36 8 5 41
2 2 4 0 0 0 0 0 0 0 0 0 0 0 0 0 0 0 0 0 0 2 1 0 0 0 0 0 0 0 0 0 0 0 0 0 0 41 40 20 100 0 1 0
5 5 5 0 0 0 0 0 19 1 0 0 1 0 0 0 0 0 0 0 0 0 5 2 0 0 0 0 0 0 0 0 0 0 0 0 0 5 5 75 8 4 10 0
100 100 5 5 3 0 0 0 0 0 0 0 0 0 0 0 0 0 0 0 0 5 0 5 0 0 2 0 0 0 0 0 4 0 0 0 0 0 5 1 1 0 0 0
100 100 58 5 5 3 0 0 0 0 0 0 0 0 1 0 0 0 0 0 0 0 0 3 5 5 5 2 0 0 0 4 2 4 4 6 0 0 2 0 0 0 0 0
100 100 25 5 5 0 0 0 22 12 2 1 56 7 5 1 0 0 0 0 0 0 0 0 0 5 4 0 1 0 0 0 1 26 100 56 16 0 1 1 0 0 0 0
100 100 13 5 1 0 0 0 84 98 25 40 5 5 5 2 4 1 0 0 0 0 0 0 2 20 10 5 3 0 0 0 2 94 67 50 20 5 0 0 0 0 0 0
100 99 6 5 4 0 52 68 86 92 58 8 2 3 2 5 1 0 0 0 0 3 0 0 0 0 2 59 5 5 1 0 0 5 14 5 7 4 2 1 0 0 0 0
100 99 78 5 5 5 18 70 88 56 18 64 51 3 72 2 0 0 1 4 8 21 5 5 0 0 0 1 5 53 23 5 0 0 3 5 5 5 3 0 0 0 0 0
92 8 79 24 6 5 12 7 10 24 8 8 40 8 95 7 13 6 7 5 8 16 5 5 5 5 4 0 1 96 84 31 4 0 3 0 3 0 0 0 0 0 0 0
50 24 34 11 10 76 94 52 5 5 37 64 84 61 75 52 16 5 10 5 4 29 5 7 48 7 5 0 0 0 17 6 5 3 5 5 0 0 0 0 0 0 0 0
100 100 100 100 98 95 54 82 81 16 17 40 64 13 86 22 43 30 36 59 38 20 25 6 10 91 1 5 0 0 0 51 5 1 0 0 0 0 0 0 0 0 0 0
100 100 100 100 100 100 98 59 64 97 98 94 100 8 19 49 37 48 54 63 82 100 72 53 48 99 100 3 2 0 0 1 5 1 0 0 0 0 0 0 0 0 0 0
100 97 87 88 88 100 81 95 54 86 48 87 100 50 94 71 40 48 100 99 81 74 62 51 27 97 100 100 43 2 0 1 3 10 4 1 0 0 0 0 0 0 0 0
84 94 59 75 54 70 80 88 82 100 100 100 78 84 54 47 39 99 100 100 100 100 100 100 100 89 28 92 100 98 60 5 29 47 67 8 5 0 0 0 0 0 0 0
99 76 81 48 61 60 93 88 97 92 95 100 100 100 100 100 100 100 100 100 100 100 100 100 100 100 100 100 96 100 100 100 100 99 88 5 5 1 0 0 0 0 0 0
56 95 86 100 98 100 100 100 100 100 100 100 100 100 100 100 100 100 100 100 100 100 100 100 100 100 100 100 100 100 100 88 93 11 4 1 0 1 0 0 0 0 0 0
93 70 86 100 100 100 98 97 100 100 100 100 100 100 100 100 100 100 100 100 100 100 100 100 100 100 100 100 100 75 69 41 66 72 21 9 27 20 0 0 3 3 0 0
100 100 98 96 98 99 100 100 100 100 100 100 100 100 100 100 100 100 100 100 100 100 100 100 100 100 100 100 100 100 100 100 100 100 100 100 84 72 100 100 82 73 0 0